2020-04-16 00:00:03 r, 18.36m,0000000004Hz,0000115171c,0000000.250s, 014.1C,00002195
2020-04-16 00:10:03 r, 18.37m,0000000004Hz,0000116280c,0000000.252s, 014.1C,00002195
2020-04-16 00:20:03 r, 18.37m,0000000004Hz,0000116141c,0000000.252s, 014.1C,00002195
2020-04-16 00:30:03 r, 18.37m,0000000004Hz,0000116272c,0000000.252s, 014.1C,00002195
2020-04-16 00:40:03 r, 18.38m,0000000004Hz,0000117089c,0000000.254s, 013.8C,00002195
2020-04-16 00:50:03 r, 18.38m,0000000004Hz,0000117115c,0000000.254s, 013.8C,00002195
2020-04-16 01:00:03 r, 18.38m,0000000003Hz,0000117185c,0000000.254s, 013.8C,00002195
2020-04-16 01:10:03 r, 18.38m,0000000004Hz,0000117145c,0000000.254s, 013.8C,00002195
2020-04-16 01:20:03 r, 18.38m,0000000004Hz,0000117435c,0000000.255s, 013.8C,00002195
2020-04-16 01:30:03 r, 18.38m,0000000004Hz,0000117277c,0000000.255s, 013.8C,00002195
2020-04-16 01:40:03 r, 18.39m,0000000004Hz,0000118097c,0000000.256s, 013.5C,00002195
2020-04-16 01:50:03 r, 18.39m,0000000004Hz,0000118314c,0000000.257s, 013.5C,00002195
2020-04-16 02:00:03 r, 18.39m,0000000004Hz,0000118090c,0000000.256s, 013.5C,00002195
2020-04-16 02:10:03 r, 18.39m,0000000004Hz,0000118205c,0000000.257s, 013.2C,00002195
2020-04-16 02:20:03 r, 18.38m,0000000004Hz,0000117445c,0000000.255s, 013.2C,00002195
2020-04-16 02:30:03 r, 18.39m,0000000004Hz,0000118051c,0000000.256s, 012.8C,00002195
2020-04-16 02:40:03 r, 18.39m,0000000004Hz,0000117804c,0000000.256s, 012.8C,00002195
2020-04-16 02:50:03 r, 18.39m,0000000004Hz,0000118051c,0000000.256s, 012.8C,00002195
2020-04-16 03:00:03 r, 18.38m,0000000004Hz,0000117211c,0000000.254s, 012.8C,00002195
2020-04-16 03:10:03 r, 18.39m,0000000004Hz,0000118050c,0000000.256s, 012.5C,00002195
2020-04-16 03:20:03 r, 18.39m,0000000004Hz,0000118033c,0000000.256s, 012.5C,00002195
2020-04-16 03:30:03 r, 18.39m,0000000004Hz,0000118376c,0000000.257s, 012.5C,00002195
2020-04-16 03:40:03 r, 18.39m,0000000004Hz,0000118071c,0000000.256s, 012.5C,00002195
2020-04-16 03:50:03 r, 18.39m,0000000004Hz,0000117963c,0000000.256s, 012.5C,00002195
2020-04-16 04:00:03 r, 18.39m,0000000004Hz,0000118021c,0000000.256s, 012.2C,00002195
2020-04-16 04:10:03 r, 18.38m,0000000004Hz,0000117333c,0000000.255s, 012.2C,00002195
2020-04-16 04:20:03 r, 18.38m,0000000004Hz,0000116969c,0000000.254s, 012.2C,00002195
2020-04-16 04:30:03 r, 18.37m,0000000004Hz,0000116275c,0000000.252s, 012.2C,00002195
2020-04-16 04:40:03 r, 18.38m,0000000004Hz,0000116954c,0000000.254s, 012.2C,00002195
2020-04-16 04:50:03 r, 18.37m,0000000004Hz,0000115957c,0000000.252s, 012.2C,00002195
2020-04-16 05:00:03 r, 18.34m,0000000004Hz,0000113286c,0000000.246s, 012.2C,00002195
2020-04-16 05:10:03 r, 18.29m,0000000005Hz,0000107628c,0000000.234s, 011.9C,00002195
2020-04-16 05:20:03 r, 18.14m,0000000005Hz,0000094111c,0000000.204s, 011.9C,00002195
2020-04-16 05:30:03 r, 17.73m,0000000007Hz,0000064371c,0000000.140s, 011.9C,00002195
2020-04-16 05:40:03 r, 16.87m,0000000016Hz,0000029164c,0000000.063s, 011.9C,00002195
2020-04-16 05:50:03 r, 15.17m,0000000075Hz,0000006062c,0000000.013s, 011.9C,00002195
2020-04-16 06:00:03 r, 13.36m,0000000404Hz,0000000000c,0000000.000s, 011.9C,00002195
2020-04-16 06:10:03 r, 11.27m,0000002770Hz,0000000000c,0000000.000s, 012.2C,00002195
2020-04-16 06:20:03 r, 09.52m,0000013865Hz,0000000000c,0000000.000s, 012.2C,00002195
2020-04-16 06:30:03 r, 08.18m,0000047604Hz,0000000000c,0000000.000s, 012.5C,00002195
2020-04-16 06:40:03 r, 07.16m,0000121998Hz,0000000000c,0000000.000s, 012.5C,00002195
2020-04-16 06:50:03 r, 06.51m,0000221312Hz,0000000000c,0000000.000s, 012.5C,00002195
2020-04-16 07:00:03 r, 06.01m,0000350911Hz,0000000000c,0000000.000s, 012.8C,00002195
2020-04-16 07:10:03 r, 00.00m,0000554602Hz,0000000000c,0000000.000s, 013.2C,00002195
2020-04-16 07:20:03 r, 00.00m,0000562052Hz,0000000000c,0000000.000s, 013.5C,00002195
2020-04-16 07:30:03 r, 00.00m,0000562175Hz,0000000000c,0000000.000s, 013.8C,00002195
2020-04-16 07:40:03 r, 00.00m,0000562203Hz,0000000000c,0000000.000s, 014.5C,00002195
2020-04-16 07:50:03 r, 00.00m,0000562319Hz,0000000000c,0000000.000s, 014.8C,00002195
2020-04-16 08:00:03 r, 00.00m,0000562296Hz,0000000000c,0000000.000s, 015.1C,00002195
2020-04-16 08:10:03 r, 00.00m,0000562388Hz,0000000000c,0000000.000s, 015.4C,00002195
2020-04-16 08:20:03 r, 00.00m,0000562339Hz,0000000000c,0000000.000s, 015.1C,00002195
2020-04-16 08:30:03 r, 00.00m,0000562357Hz,0000000000c,0000000.000s, 015.4C,00002195
2020-04-16 08:40:03 r, 00.00m,0000562349Hz,0000000000c,0000000.000s, 015.4C,00002195
2020-04-16 08:50:03 r, 00.00m,0000562427Hz,0000000000c,0000000.000s, 016.1C,00002195
2020-04-16 09:00:03 r, 00.00m,0000562727Hz,0000000000c,0000000.000s, 017.4C,00002195
2020-04-16 09:10:03 r, 00.00m,0000562663Hz,0000000000c,0000000.000s, 018.0C,00002195
2020-04-16 09:20:03 r, 00.00m,0000562807Hz,0000000000c,0000000.000s, 018.6C,00002195
2020-04-16 09:30:03 r, 00.00m,0000563141Hz,0000000000c,0000000.000s, 020.6C,00002195
2020-04-16 09:40:03 r, 00.00m,0000563152Hz,0000000000c,0000000.000s, 021.2C,00002195
2020-04-16 09:50:03 r, 00.00m,0000563316Hz,0000000000c,0000000.000s, 021.5C,00002195
2020-04-16 10:00:03 r, 00.00m,0000563305Hz,0000000000c,0000000.000s, 022.2C,00002195
2020-04-16 10:10:03 r, 00.00m,0000563403Hz,0000000000c,0000000.000s, 022.5C,00002195
2020-04-16 10:20:03 r, 00.00m,0000563489Hz,0000000000c,0000000.000s, 023.2C,00002195
2020-04-16 10:30:03 r, 00.00m,0000563508Hz,0000000000c,0000000.000s, 023.8C,00002195
2020-04-16 10:40:03 r, 00.00m,0000563508Hz,0000000000c,0000000.000s, 023.8C,00002195
2020-04-16 10:50:03 r, 00.00m,0000563659Hz,0000000000c,0000000.000s, 024.1C,00002195
2020-04-16 11:00:03 r, 00.00m,0000563634Hz,0000000000c,0000000.000s, 025.1C,00002195
2020-04-16 11:10:03 r, 00.00m,0000563654Hz,0000000000c,0000000.000s, 024.4C,00002195
2020-04-16 11:20:03 r, 00.00m,0000563653Hz,0000000000c,0000000.000s, 024.4C,00002195
2020-04-16 11:30:03 r, 00.00m,0000563689Hz,0000000000c,0000000.000s, 024.8C,00002195
2020-04-16 11:40:03 r, 00.00m,0000563701Hz,0000000000c,0000000.000s, 025.1C,00002195
2020-04-16 11:50:03 r, 00.00m,0000563915Hz,0000000000c,0000000.000s, 025.7C,00002195
2020-04-16 12:00:03 r, 00.00m,0000564126Hz,0000000000c,0000000.000s, 027.3C,00002195
2020-04-16 12:10:03 r, 00.00m,0000564345Hz,0000000000c,0000000.000s, 029.0C,00002195
2020-04-16 12:20:03 r, 00.00m,0000564467Hz,0000000000c,0000000.000s, 030.2C,00002195
2020-04-16 12:30:03 r, 00.00m,0000564317Hz,0000000000c,0000000.000s, 029.6C,00002195
2020-04-16 12:40:03 r, 00.00m,0000564335Hz,0000000000c,0000000.000s, 029.9C,00002195
2020-04-16 12:50:03 r, 00.00m,0000563934Hz,0000000000c,0000000.000s, 027.7C,00002195
2020-04-16 13:00:03 r, 00.00m,0000563750Hz,0000000000c,0000000.000s, 026.1C,00002195
2020-04-16 13:10:03 r, 00.00m,0000563969Hz,0000000000c,0000000.000s, 026.7C,00002195
2020-04-16 13:20:03 r, 00.00m,0000563822Hz,0000000000c,0000000.000s, 025.7C,00002195
2020-04-16 13:30:03 r, 00.00m,0000564281Hz,0000000000c,0000000.000s, 029.3C,00002195
2020-04-16 13:40:03 r, 00.00m,0000564485Hz,0000000000c,0000000.000s, 030.2C,00002195
2020-04-16 13:50:03 r, 00.00m,0000564574Hz,0000000000c,0000000.000s, 031.2C,00002195
2020-04-16 14:00:03 r, 00.00m,0000564555Hz,0000000000c,0000000.000s, 031.5C,00002195
2020-04-16 14:10:03 r, 00.00m,0000564454Hz,0000000000c,0000000.000s, 030.2C,00002195
2020-04-16 14:20:03 r, 00.00m,0000564455Hz,0000000000c,0000000.000s, 030.6C,00002195
2020-04-16 14:30:03 r, 00.00m,0000564692Hz,0000000000c,0000000.000s, 031.9C,00002195
2020-04-16 14:40:03 r, 00.00m,0000564798Hz,0000000000c,0000000.000s, 033.5C,00002195
2020-04-16 14:50:03 r, 00.00m,0000564549Hz,0000000000c,0000000.000s, 032.5C,00002195
2020-04-16 15:00:03 r, 00.00m,0000564080Hz,0000000000c,0000000.000s, 029.6C,00002195
2020-04-16 15:10:03 r, 00.00m,0000563999Hz,0000000000c,0000000.000s, 029.0C,00002195
2020-04-16 15:20:03 r, 00.00m,0000563899Hz,0000000000c,0000000.000s, 027.3C,00002195
2020-04-16 15:30:03 r, 00.00m,0000564217Hz,0000000000c,0000000.000s, 029.6C,00002195
2020-04-16 15:40:03 r, 00.00m,0000564092Hz,0000000000c,0000000.000s, 028.6C,00002195
2020-04-16 15:50:03 r, 00.00m,0000564058Hz,0000000000c,0000000.000s, 028.3C,00002195
2020-04-16 16:00:03 r, 00.00m,0000564137Hz,0000000000c,0000000.000s, 028.0C,00002195
2020-04-16 16:10:03 r, 00.00m,0000564226Hz,0000000000c,0000000.000s, 029.3C,00002195
2020-04-16 16:20:03 r, 00.00m,0000564218Hz,0000000000c,0000000.000s, 029.6C,00002195
2020-04-16 16:30:03 r, 00.00m,0000564161Hz,0000000000c,0000000.000s, 029.0C,00002195
2020-04-16 16:40:03 r, 00.00m,0000564125Hz,0000000000c,0000000.000s, 028.6C,00002195
2020-04-16 16:50:03 r, 00.00m,0000564003Hz,0000000000c,0000000.000s, 028.3C,00002195
2020-04-16 17:00:03 r, 00.00m,0000564088Hz,0000000000c,0000000.000s, 028.3C,00002195
2020-04-16 17:10:03 r, 00.00m,0000563985Hz,0000000000c,0000000.000s, 028.3C,00002195
2020-04-16 17:20:03 r, 00.00m,0000563964Hz,0000000000c,0000000.000s, 027.7C,00002195
2020-04-16 17:30:03 r, 00.00m,0000563849Hz,0000000000c,0000000.000s, 027.3C,00002195
2020-04-16 17:40:03 r, 00.00m,0000563828Hz,0000000000c,0000000.000s, 026.7C,00002195
2020-04-16 17:50:03 r, 00.00m,0000563801Hz,0000000000c,0000000.000s, 026.4C,00002195
2020-04-16 18:00:03 r, 00.00m,0000563637Hz,0000000000c,0000000.000s, 025.7C,00002195
2020-04-16 18:10:03 r, 00.00m,0000563498Hz,0000000000c,0000000.000s, 025.1C,00002195
2020-04-16 18:20:03 r, 00.00m,0000563430Hz,0000000000c,0000000.000s, 024.4C,00002195
2020-04-16 18:30:03 r, 00.00m,0000563329Hz,0000000000c,0000000.000s, 023.8C,00002195
2020-04-16 18:40:03 r, 00.00m,0000563220Hz,0000000000c,0000000.000s, 023.2C,00002195
2020-04-16 18:50:03 r, 00.00m,0000563181Hz,0000000000c,0000000.000s, 022.8C,00002195
2020-04-16 19:00:03 r, 00.00m,0000563160Hz,0000000000c,0000000.000s, 022.2C,00002195
2020-04-16 19:10:03 r, 00.00m,0000563055Hz,0000000000c,0000000.000s, 021.9C,00002195
2020-04-16 19:20:03 r, 00.00m,0000563004Hz,0000000000c,0000000.000s, 021.2C,00002195
2020-04-16 19:30:03 r, 00.00m,0000557493Hz,0000000000c,0000000.000s, 020.6C,00002195
2020-04-16 19:40:03 r, 00.00m,0000458868Hz,0000000000c,0000000.000s, 020.3C,00002195
2020-04-16 19:50:03 r, 05.98m,0000362428Hz,0000000000c,0000000.000s, 019.6C,00002195
2020-04-16 20:00:03 r, 06.35m,0000256638Hz,0000000000c,0000000.000s, 019.0C,00002195
2020-04-16 20:10:03 r, 06.85m,0000162784Hz,0000000000c,0000000.000s, 018.6C,00002195
2020-04-16 20:20:03 r, 07.59m,0000082266Hz,0000000000c,0000000.000s, 018.0C,00002195
2020-04-16 20:30:03 r, 08.63m,0000031317Hz,0000000000c,0000000.000s, 017.4C,00002195
2020-04-16 20:40:03 r, 10.09m,0000008163Hz,0000000000c,0000000.000s, 017.0C,00002195
2020-04-16 20:50:03 r, 11.89m,0000001553Hz,0000000000c,0000000.000s, 016.7C,00002195
2020-04-16 21:00:03 r, 13.84m,0000000258Hz,0000000000c,0000000.000s, 016.4C,00002195
2020-04-16 21:10:03 r, 15.77m,0000000044Hz,0000010638c,0000000.023s, 016.4C,00002195
2020-04-16 21:20:03 r, 17.11m,0000000012Hz,0000036390c,0000000.079s, 016.1C,00002195
2020-04-16 21:30:03 r, 17.81m,0000000007Hz,0000069038c,0000000.150s, 016.1C,00002195
2020-04-16 21:40:03 r, 18.12m,0000000005Hz,0000091220c,0000000.198s, 015.7C,00002195
2020-04-16 21:50:03 r, 18.22m,0000000005Hz,0000100837c,0000000.219s, 015.7C,00002195
2020-04-16 22:00:03 r, 18.27m,0000000004Hz,0000105691c,0000000.229s, 015.7C,00002195
2020-04-16 22:10:03 r, 18.29m,0000000004Hz,0000107504c,0000000.233s, 015.4C,00002195
2020-04-16 22:20:03 r, 18.30m,0000000004Hz,0000108273c,0000000.235s, 015.4C,00002195
2020-04-16 22:30:03 r, 18.31m,0000000004Hz,0000108565c,0000000.236s, 015.4C,00002195
2020-04-16 22:40:03 r, 18.30m,0000000004Hz,0000108533c,0000000.236s, 015.4C,00002195
2020-04-16 22:50:03 r, 18.30m,0000000005Hz,0000108521c,0000000.236s, 015.1C,00002195
2020-04-16 23:00:03 r, 18.31m,0000000004Hz,0000109386c,0000000.237s, 015.1C,00002195
2020-04-16 23:10:03 r, 18.32m,0000000004Hz,0000110102c,0000000.239s, 015.1C,00002195
2020-04-16 23:20:03 r, 18.30m,0000000004Hz,0000109474c,0000000.238s, 014.8C,00002195
2020-04-16 23:30:03 r, 18.31m,0000000004Hz,0000109775c,0000000.238s, 014.8C,00002195
2020-04-16 23:40:03 r, 18.31m,0000000004Hz,0000110322c,0000000.239s, 014.8C,00002195
2020-04-16 23:50:03 r, 18.31m,0000000004Hz,0000110476c,0000000.240s, 014.8C,00002195
